�N����,����,�g�[���i�L�b�`���j���x,�g�[�����x,��g�[���i���ʏ��j���x,����
 2003/05/01, 0:00,19.4,54,9.8,16.7
 2003/05/01, 0:15,19.1,54,9.8,16.7
 2003/05/01, 0:30,18.8,55,10.2,16.8
 2003/05/01, 0:45,18.6,55,11.4,16.8
 2003/05/01, 1:00,18.3,55,11.5,16.8
 2003/05/01, 1:15,18.1,55,11.6,16.8
 2003/05/01, 1:30,17.9,55,11.4,16.9
 2003/05/01, 1:45,17.8,55,11.6,16.9
 2003/05/01, 2:00,17.6,55,11.9,16.9
 2003/05/01, 2:15,17.5,55,12,16.9
 2003/05/01, 2:30,17.3,55,12,16.9
 2003/05/01, 2:45,17.2,55,11.2,16.9
 2003/05/01, 3:00,17,55,11.4,15.7
 2003/05/01, 3:15,16.9,56,11.2,15.7
 2003/05/01, 3:30,17,56,11.1,15.7
 2003/05/01, 3:45,16.8,56,11.1,15.8
 2003/05/01, 4:00,16.7,56,11.6,15.8
 2003/05/01, 4:15,16.6,56,10.5,15.8
 2003/05/01, 4:30,16.5,56,10.7,15.8
 2003/05/01, 4:45,16.4,56,10.4,15.8
 2003/05/01, 5:00,16.4,56,10.1,15.9
 2003/05/01, 5:15,16.2,56,10.4,15.9
 2003/05/01, 5:30,16.1,56,10.7,15.9
 2003/05/01, 5:45,16.1,56,11,15.9
 2003/05/01, 6:00,16.1,56,11.2,15.9
 2003/05/01, 6:15,16,55,11.4,15.9
 2003/05/01, 6:30,15.8,55,12.1,14.8
 2003/05/01, 6:45,15.9,56,12.1,14.9
 2003/05/01, 7:00,16.6,56,11.9,14.9
 2003/05/01, 7:15,16.7,55,12.4,14.9
 2003/05/01, 7:30,16.6,55,12.8,14.9
 2003/05/01, 7:45,16.5,55,13,14.9
 2003/05/01, 8:00,16.6,55,13.2,14.9
 2003/05/01, 8:15,16.7,54,13.1,14.9
 2003/05/01, 8:30,16.6,55,13.7,14.9
 2003/05/01, 8:45,16.8,51,14.6,14.9
 2003/05/01, 9:00,16.9,51,14.2,14.9
 2003/05/01, 9:15,16.9,52,14.7,14.9
 2003/05/01, 9:30,16.8,43,15.1,15
 2003/05/01, 9:45,16.7,38,15.2,15
 2003/05/01,10:00,16.9,32,15.4,15
 2003/05/01,10:15,17,37,15.7,15.1
 2003/05/01,10:30,17.2,39,16,15.1
 2003/05/01,10:45,17.2,40,16.3,15.2
 2003/05/01,11:00,17.3,41,16.5,15.2
 2003/05/01,11:15,17.4,40,16.8,15.3
 2003/05/01,11:30,17.4,40,16.8,15.3
 2003/05/01,11:45,17.4,42,16.7,15.4
 2003/05/01,12:00,17.4,41,17.1,15.5
 2003/05/01,12:15,17.5,43,17.3,15.4
 2003/05/01,12:30,17.6,39,17.3,15.4
 2003/05/01,12:45,17.9,43,17.7,15.5
 2003/05/01,13:00,18,40,18.5,15.5
 2003/05/01,13:15,18.1,39,18.9,15.6
 2003/05/01,13:30,18.3,39,19.4,15.6
 2003/05/01,13:45,18.4,38,20.2,15.7
 2003/05/01,14:00,18.6,40,21.1,15.8
 2003/05/01,14:15,18.7,41,21.1,15.8
 2003/05/01,14:30,18.8,41,19.8,15.9
 2003/05/01,14:45,19.1,40,19.8,16
 2003/05/01,15:00,19.1,41,20.1,16.1
 2003/05/01,15:15,19.3,40,20.5,16.1
 2003/05/01,15:30,19.3,40,20.2,16.2
 2003/05/01,15:45,19.5,41,20,16.3
 2003/05/01,16:00,19.7,40,20,16.4
 2003/05/01,16:15,19.7,42,20.1,16.5
 2003/05/01,16:30,19.7,43,20.3,16.6
 2003/05/01,16:45,19.7,42,20.3,16.7
 2003/05/01,17:00,19.7,44,20.3,16.8
 2003/05/01,17:15,19.7,44,20.4,16.8
 2003/05/01,17:30,19.7,44,20.4,16.9
 2003/05/01,17:45,19.8,45,20.2,17
 2003/05/01,18:00,19.8,48,19.5,17.1
 2003/05/01,18:15,19.9,48,18.5,17.2
 2003/05/01,18:30,20.2,49,17.9,17.2
 2003/05/01,18:45,20.3,49,17.1,17.3
 2003/05/01,19:00,20.2,49,16.5,17.4
 2003/05/01,19:15,20.2,52,16,17.5
 2003/05/01,19:30,20.2,50,15.7,17.5
 2003/05/01,19:45,20.3,49,16.7,17.6
 2003/05/01,20:00,20.2,49,16.7,17.7
 2003/05/01,20:15,20.1,48,17.6,17.7
 2003/05/01,20:30,20,47,18.8,17.8
 2003/05/01,20:45,19.9,47,18.4,17.9
 2003/05/01,21:00,19.9,47,18.3,17.9
 2003/05/01,21:15,19.8,47,18.1,18
 2003/05/01,21:30,19.7,48,17.3,18
 2003/05/01,21:45,19.8,48,17.7,18.1
 2003/05/01,22:00,19.7,49,17.6,18.1
 2003/05/01,22:15,19.7,50,17.6,18.2
 2003/05/01,22:30,19.7,50,17.3,18.2
 2003/05/01,22:45,19.7,50,17.3,18.3
 2003/05/01,23:00,20.1,51,17.3,18.3
 2003/05/01,23:15,20.2,50,16.6,18.3
 2003/05/01,23:30,20.3,50,16.7,18.4
 2003/05/01,23:45,20.2,50,16,17.6
 2003/05/02, 0:00,20.1,50,15.1,17.6
 2003/05/02, 0:15,20,50,14.4,17.6
 2003/05/02, 0:30,19.8,50,14,16.9
 2003/05/02, 0:45,19.6,50,13.7,16.9
 2003/05/02, 1:00,19.4,50,13.7,16.9
 2003/05/02, 1:15,19.3,50,13.6,16.9
 2003/05/02, 1:30,19.1,50,13.7,17
 2003/05/02, 1:45,19,50,13.6,17
 2003/05/02, 2:00,19,50,13.4,17.1
 2003/05/02, 2:15,18.8,50,13.3,17.1
 2003/05/02, 2:30,18.7,51,13.4,17.2
 2003/05/02, 2:45,18.6,50,13,17.2
 2003/05/02, 3:00,18.5,50,13.2,17.3
 2003/05/02, 3:15,18.4,51,13.3,17.3
 2003/05/02, 3:30,18.3,51,13.1,17.3
 2003/05/02, 3:45,18.2,51,13,17.4
 2003/05/02, 4:00,18.1,51,13,17.4
 2003/05/02, 4:15,18.1,51,13.2,17.4
 2003/05/02, 4:30,18.1,52,13.1,17.4
 2003/05/02, 4:45,17.9,52,13.3,17.5
 2003/05/02, 5:00,17.8,52,13.3,17.5
 2003/05/02, 5:15,17.8,53,13.2,17.5
 2003/05/02, 5:30,17.8,53,13.4,17.5
 2003/05/02, 5:45,17.7,53,13.9,17.6
 2003/05/02, 6:00,17.6,53,14.1,16.8
 2003/05/02, 6:15,17.5,53,14.2,16.2
 2003/05/02, 6:30,20,50,14.4,16.3
 2003/05/02, 6:45,20.6,49,14.9,16.3
 2003/05/02, 7:00,20.7,50,15.1,16.3
 2003/05/02, 7:15,20.8,50,15.1,16.4
 2003/05/02, 7:30,20.4,50,15.6,16.4
 2003/05/02, 7:45,19.7,52,16,15.9
 2003/05/02, 8:00,19.5,53,16.2,16
 2003/05/02, 8:15,19.5,53,16.5,16
 2003/05/02, 8:30,19.5,54,16.9,16.1
 2003/05/02, 8:45,19.7,54,17.5,16.1
 2003/05/02, 9:00,19.6,54,17.7,16.2
 2003/05/02, 9:15,19.7,54,18,16.2
 2003/05/02, 9:30,19.7,54,18.3,16.3
 2003/05/02, 9:45,19.8,54,18.7,16.4
 2003/05/02,10:00,20,51,19.1,16.4
 2003/05/02,10:15,20.2,51,19.2,16.5
 2003/05/02,10:30,20.3,51,19.5,16.6
 2003/05/02,10:45,20.5,52,19.8,16.6
 2003/05/02,11:00,20.6,51,20.2,16.7
 2003/05/02,11:15,20.7,51,20.7,16.8
 2003/05/02,11:30,20.8,51,21.5,16.9
 2003/05/02,11:45,20.9,51,21.9,17
 2003/05/02,12:00,20.9,51,22.3,17
 2003/05/02,12:15,21.1,52,22.4,17.1
 2003/05/02,12:30,21.2,53,23,17.2
 2003/05/02,12:45,21.4,53,23.1,17.3
 2003/05/02,13:00,21.7,55,23.4,17.4
 2003/05/02,13:15,22.2,55,24.2,17.5
 2003/05/02,13:30,22.3,54,24.4,17.5
 2003/05/02,13:45,22.5,53,25.2,17.6
 2003/05/02,14:00,22.7,52,25.3,17.7
 2003/05/02,14:15,22.9,51,24.4,17.8
 2003/05/02,14:30,23,50,23.9,17.9
 2003/05/02,14:45,23.1,51,23.5,18
 2003/05/02,15:00,23.1,51,23.4,18.2
 2003/05/02,15:15,23.2,51,23.5,18.3
 2003/05/02,15:30,23.3,51,23.1,18.4
 2003/05/02,15:45,23.3,50,23.2,18.9
 2003/05/02,16:00,23.3,50,23,19
 2003/05/02,16:15,23.3,50,22.8,19.1
 2003/05/02,16:30,23.2,51,22.8,19.1
 2003/05/02,16:45,23,50,22.4,19.2
 2003/05/02,17:00,23,50,22.3,19.2
 2003/05/02,17:15,22.9,50,21.9,19.3
 2003/05/02,17:30,22.9,51,22,19.4
 2003/05/02,17:45,22.8,52,22,19.1
 2003/05/02,18:00,22.9,52,22,19.2
 2003/05/02,18:15,22.9,53,22.2,19.2
 2003/05/02,18:30,22.9,54,22.3,19.3
 2003/05/02,18:45,23,55,21.8,19.3
 2003/05/02,19:00,23.1,56,21.5,19.4
 2003/05/02,19:15,23.3,56,21.5,19.4
 2003/05/02,19:30,23.6,57,21,19.5
 2003/05/02,19:45,23.5,56,20.9,19.5
 2003/05/02,20:00,23.5,56,20.7,19.6
 2003/05/02,20:15,23.5,56,20.9,19.7
 2003/05/02,20:30,23.5,55,20.5,19.7
 2003/05/02,20:45,23.5,55,20.9,18.2
 2003/05/02,21:00,23.4,55,20.5,18.3
 2003/05/02,21:15,23.3,55,20.7,18.6
 2003/05/02,21:30,23.2,55,20.7,18.8
 2003/05/02,21:45,23.1,55,20.9,19.1
 2003/05/02,22:00,23,56,20.2,19.3
 2003/05/02,22:15,23,56,20.2,19.6
 2003/05/02,22:30,22.9,56,20,19.8
 2003/05/02,22:45,22.9,56,19.7,20
 2003/05/02,23:00,22.9,56,19.4,20.2
 2003/05/02,23:15,22.8,56,19.7,20.4
 2003/05/02,23:30,22.8,56,19.6,20.6
 2003/05/02,23:45,22.7,56,19.5,19
 2003/05/03, 0:00,22.7,56,19.5,19.1
 2003/05/03, 0:15,22.7,56,18.9,19.2
 2003/05/03, 0:30,22.6,56,18.5,19.3
 2003/05/03, 0:45,22.5,56,18,19.5
 2003/05/03, 1:00,22.4,56,17.7,19.6
 2003/05/03, 1:15,22.3,56,17.6,19.8
 2003/05/03, 1:30,22.2,56,17.3,19.9
 2003/05/03, 1:45,22.1,56,16.7,20
 2003/05/03, 2:00,22,56,16.3,20.2
 2003/05/03, 2:15,22,55,16.3,20.3
 2003/05/03, 2:30,21.9,56,16.2,20.4
 2003/05/03, 2:45,21.8,56,16,20.5
 2003/05/03, 3:00,21.7,56,16,18.7
 2003/05/03, 3:15,21.6,55,15.9,18.7
 2003/05/03, 3:30,21.5,56,15.7,18.8
 2003/05/03, 3:45,21.4,56,15.5,18.9
 2003/05/03, 4:00,21.3,56,15.5,19
 2003/05/03, 4:15,21.2,56,15.9,19.1
 2003/05/03, 4:30,21.2,56,15.8,19.2
 2003/05/03, 4:45,21.1,56,16.1,19.4
 2003/05/03, 5:00,21,56,16,19.5
 2003/05/03, 5:15,21,56,15.9,19.6
 2003/05/03, 5:30,20.9,56,16.1,19.6
 2003/05/03, 5:45,20.8,56,16.4,19.7
 2003/05/03, 6:00,20.7,56,16.5,19.7
 2003/05/03, 6:15,20.7,57,16.9,19.8
 2003/05/03, 6:30,20.7,57,16.9,19.8
 2003/05/03, 6:45,20.7,57,17.1,19.9
 2003/05/03, 7:00,20.6,58,17.4,19.9
 2003/05/03, 7:15,20.6,58,17.7,19.9
 2003/05/03, 7:30,20.7,58,17.9,19.9
 2003/05/03, 7:45,20.8,59,18.5,20
 2003/05/03, 8:00,20.9,59,18.7,20
 2003/05/03, 8:15,21,59,19.1,20
 2003/05/03, 8:30,21.2,60,19.3,20.1
 2003/05/03, 8:45,21.4,59,19.5,20.1
 2003/05/03, 9:00,21.6,60,19.8,18.8
 2003/05/03, 9:15,22,60,20,18.8
 2003/05/03, 9:30,22.5,59,20.2,18.9
 2003/05/03, 9:45,22.7,59,20.5,19
 2003/05/03,10:00,22.8,59,21,17.5
 2003/05/03,10:15,23,57,21.1,17.6
 2003/05/03,10:30,23,57,21.5,17.9
 2003/05/03,10:45,23.1,56,21.4,17.9
 2003/05/03,11:00,23.1,56,21.7,18
 2003/05/03,11:15,23,54,21.9,18.1
 2003/05/03,11:30,23,55,22.3,18.2
 2003/05/03,11:45,22.9,54,22.5,18.3
 2003/05/03,12:00,22.7,55,22.4,18.3
 2003/05/03,12:15,22.7,55,22.6,18.4
 2003/05/03,12:30,22.7,55,23,18.5
 2003/05/03,12:45,22.8,54,23.1,18.5
 2003/05/03,13:00,22.9,54,23.2,18.6
 2003/05/03,13:15,23,54,23.7,18.7
 2003/05/03,13:30,23,54,23.7,18.8
 2003/05/03,13:45,23.1,54,24.1,18.8
 2003/05/03,14:00,23.2,53,24.5,18.9
 2003/05/03,14:15,23.3,51,24,19
 2003/05/03,14:30,23.4,52,24.1,19.1
 2003/05/03,14:45,23.6,50,24,19.1
 2003/05/03,15:00,23.7,50,24.4,19.2
 2003/05/03,15:15,23.8,49,24.5,19.3
 2003/05/03,15:30,23.8,48,24.3,19.4
 2003/05/03,15:45,23.9,47,24.3,19.4
 2003/05/03,16:00,23.9,47,24,19.8
 2003/05/03,16:15,24,47,24,19.8
 2003/05/03,16:30,24,47,24,19.9
 2003/05/03,16:45,23.9,47,24,19.9
 2003/05/03,17:00,23.9,47,23.8,20
 2003/05/03,17:15,23.9,46,23.9,20.1
 2003/05/03,17:30,23.9,46,23.8,20.1
 2003/05/03,17:45,23.9,46,24.1,20.2
 2003/05/03,18:00,23.8,47,23.9,20.3
 2003/05/03,18:15,23.8,48,23.5,20.4
 2003/05/03,18:30,23.8,49,23,20.4
 2003/05/03,18:45,23.9,50,23.1,20.5
 2003/05/03,19:00,24,51,22.1,20.6
 2003/05/03,19:15,24.1,53,21.1,20.7
 2003/05/03,19:30,24.2,54,20.9,20.8
 2003/05/03,19:45,24.2,53,20.6,20.8
 2003/05/03,20:00,24.1,52,20.2,20.9
 2003/05/03,20:15,24,52,20.2,21
 2003/05/03,20:30,23.9,51,20.2,21
 2003/05/03,20:45,23.8,51,20.4,21.1
 2003/05/03,21:00,23.7,51,20.7,21.2
 2003/05/03,21:15,23.5,50,21.8,21.2
 2003/05/03,21:30,23.5,51,20.6,21.3
 2003/05/03,21:45,23.4,51,20.6,20.6
 2003/05/03,22:00,23.3,51,20.3,20.6
 2003/05/03,22:15,23.3,50,20.2,20.6
 2003/05/03,22:30,23.2,50,20.2,20.7
 2003/05/03,22:45,23.2,50,20.1,20.7
 2003/05/03,23:00,23.1,50,20.1,20.8
 2003/05/03,23:15,23,50,19.5,19.8
 2003/05/03,23:30,22.9,50,19,19.9
 2003/05/03,23:45,22.9,51,18.5,19.9
 2003/05/04, 0:00,22.7,52,18,19.9
 2003/05/04, 0:15,22.6,52,17.6,20
 2003/05/04, 0:30,22.5,52,17.1,20
 2003/05/04, 0:45,22.4,52,17,18.7
 2003/05/04, 1:00,22.2,52,17,18.7
 2003/05/04, 1:15,22,53,16.7,18.8
 2003/05/04, 1:30,21.9,53,16.5,18.8
 2003/05/04, 1:45,21.8,53,16.5,18.9
 2003/05/04, 2:00,21.6,53,16.4,19
 2003/05/04, 2:15,21.5,53,16.2,19
 2003/05/04, 2:30,21.4,54,16.1,19.1
 2003/05/04, 2:45,21.2,54,16,19.1
 2003/05/04, 3:00,21.1,54,15.7,19.1
 2003/05/04, 3:15,21,54,15.5,18
 2003/05/04, 3:30,20.9,54,15.6,18.1
 2003/05/04, 3:45,20.7,54,15.3,18.2
 2003/05/04, 4:00,20.7,54,15.4,18.2
 2003/05/04, 4:15,20.6,54,15.2,18.3
 2003/05/04, 4:30,20.5,54,15.2,18.3
 2003/05/04, 4:45,20.4,54,15,18.3
 2003/05/04, 5:00,20.3,54,14.9,18.4
 2003/05/04, 5:15,20.2,54,15.3,18.1
 2003/05/04, 5:30,20.2,55,15.6,18.1
 2003/05/04, 5:45,20.1,55,15.8,18.1
 2003/05/04, 6:00,20,56,15.8,18.2
 2003/05/04, 6:15,19.9,57,15.9,18.2
 2003/05/04, 6:30,19.8,57,16.3,18.2
 2003/05/04, 6:45,19.8,58,16.5,18.3
 2003/05/04, 7:00,19.8,58,17.1,18.1
 2003/05/04, 7:15,19.9,58,17.6,18.1
 2003/05/04, 7:30,20.3,59,17.7,18.1
 2003/05/04, 7:45,20.3,58,18,18.1
 2003/05/04, 8:00,20.5,57,18.4,18.3
 2003/05/04, 8:15,20.5,58,18.7,18.3
 2003/05/04, 8:30,20.6,58,19.1,18.3
 2003/05/04, 8:45,20.6,58,19.3,18.4
 2003/05/04, 9:00,20.7,57,19.5,18.4
 2003/05/04, 9:15,20.8,57,19.5,18.5
 2003/05/04, 9:30,20.8,57,19.8,18.5
 2003/05/04, 9:45,20.9,57,20.2,18.5
 2003/05/04,10:00,21,53,20.5,18.6
 2003/05/04,10:15,21.1,52,20.8,18.3
 2003/05/04,10:30,21.3,52,21.1,18.4
 2003/05/04,10:45,21.4,52,21.6,18.4
 2003/05/04,11:00,21.6,53,22,18.3
 2003/05/04,11:15,21.8,52,22.5,18.4
 2003/05/04,11:30,21.9,52,22.4,18.4
 2003/05/04,11:45,22,53,22.9,18.5
 2003/05/04,12:00,22.3,53,23.1,18.5
 2003/05/04,12:15,22.6,56,23.8,18.6
 2003/05/04,12:30,22.7,54,24.1,18.7
 2003/05/04,12:45,22.9,51,24.8,18.7
 2003/05/04,13:00,23.1,49,24.9,18.9
 2003/05/04,13:15,23.2,48,25.3,19
 2003/05/04,13:30,23.3,48,26.2,19.1
 2003/05/04,13:45,23.4,47,26.2,19.1
 2003/05/04,14:00,23.6,47,26.5,19.2
 2003/05/04,14:15,23.7,46,25.7,19.3
 2003/05/04,14:30,23.9,46,25.2,19.3
 2003/05/04,14:45,24.1,46,25.2,19.7
 2003/05/04,15:00,24.3,44,25.2,19.7
 2003/05/04,15:15,24.5,44,25.3,19.8
 2003/05/04,15:30,24.5,44,25.5,19.9
 2003/05/04,15:45,24.8,44,25.6,19.9
 2003/05/04,16:00,24.8,45,25.2,20
 2003/05/04,16:15,24.8,45,25.3,20.1
 2003/05/04,16:30,24.7,47,25.4,20.2
 2003/05/04,16:45,24.6,48,25.5,20.3
 2003/05/04,17:00,24.6,48,25.4,20.4
 2003/05/04,17:15,24.7,48,25.3,20.5
 2003/05/04,17:30,24.6,48,25.2,20.6
 2003/05/04,17:45,24.7,48,25.3,20.7
 2003/05/04,18:00,24.7,48,25.2,20.8
 2003/05/04,18:15,24.7,50,24.9,20.9
 2003/05/04,18:30,24.7,53,24.1,20.9
 2003/05/04,18:45,24.8,52,23.7,21
 2003/05/04,19:00,25,53,22.9,21.1
 2003/05/04,19:15,25,54,22.5,21.2
 2003/05/04,19:30,25,54,22.2,21.3
 2003/05/04,19:45,24.9,53,21.9,21.4
 2003/05/04,20:00,24.8,52,22,21.5
 2003/05/04,20:15,24.7,52,22.2,21.5
 2003/05/04,20:30,24.6,51,22,21.6
 2003/05/04,20:45,24.6,51,21.8,21.7
 2003/05/04,21:00,24.5,51,22.7,21.7
 2003/05/04,21:15,24.5,51,21.7,21.8
 2003/05/04,21:30,24.4,50,21.1,21.9
 2003/05/04,21:45,24.2,50,20.8,21.9
 2003/05/04,22:00,24.2,51,20.6,22
 2003/05/04,22:15,24.1,51,20.6,22
 2003/05/04,22:30,24.1,52,20,22.1
 2003/05/04,22:45,24.1,52,19.9,22.1
 2003/05/04,23:00,24,52,19.9,22.2
 2003/05/04,23:15,23.9,51,19.8,22.2
 2003/05/04,23:30,23.8,52,19.4,22.3
 2003/05/04,23:45,23.6,52,19.3,22.3
 2003/05/05, 0:00,23.5,52,19.2,20.8
 2003/05/05, 0:15,23.4,52,18.8,20.8
 2003/05/05, 0:30,23.2,52,18.5,20.8
 2003/05/05, 0:45,23.1,52,18.2,20.9
 2003/05/05, 1:00,23,51,17.7,20.9
 2003/05/05, 1:15,22.8,51,17.7,21
 2003/05/05, 1:30,22.7,51,17.6,21
 2003/05/05, 1:45,22.5,51,17.2,21.1
 2003/05/05, 2:00,22.4,51,17.2,19.9
 2003/05/05, 2:15,22.3,51,16.8,19.9
 2003/05/05, 2:30,22.1,51,16.5,19.9
 2003/05/05, 2:45,22,50,16.9,20
 2003/05/05, 3:00,21.8,50,17.2,20
 2003/05/05, 3:15,21.7,48,17.6,20.1
 2003/05/05, 3:30,21.6,46,17.9,20.1
 2003/05/05, 3:45,21.4,46,17.9,20.1
 2003/05/05, 4:00,21.3,46,18.1,20.2
 2003/05/05, 4:15,21.2,45,18,20.2
 2003/05/05, 4:30,21.1,45,17.7,20.2
 2003/05/05, 4:45,21,46,17.1,20.3
 2003/05/05, 5:00,21,46,16.7,20.3
 2003/05/05, 5:15,20.8,47,16.2,20.3
 2003/05/05, 5:30,20.8,46,16.6,20.4
 2003/05/05, 5:45,20.8,45,16.8,19.1
 2003/05/05, 6:00,20.7,44,17.3,19
 2003/05/05, 6:15,20.7,44,17.5,19.1
 2003/05/05, 6:30,20.7,44,17.8,19.1
 2003/05/05, 6:45,20.8,45,18.3,19.1
 2003/05/05, 7:00,20.9,46,18.6,19.1
 2003/05/05, 7:15,21.1,47,19.1,18.7
 2003/05/05, 7:30,21.3,46,19.1,18.7
 2003/05/05, 7:45,21.4,46,20,18.8
 2003/05/05, 8:00,21.5,46,19.8,18.7
 2003/05/05, 8:15,21.5,44,20,18.6
 2003/05/05, 8:30,21.6,45,20.3,18.6
 2003/05/05, 8:45,21.7,45,20.3,18.7
 2003/05/05, 9:00,22,43,20.7,18.7
 2003/05/05, 9:15,22.3,39,20.9,18.8
 2003/05/05, 9:30,22.6,38,21.4,18.8
 2003/05/05, 9:45,22.8,35,21.6,18.9
 2003/05/05,10:00,23.1,32,22,18.9
 2003/05/05,10:15,23.1,31,22.3,19
 2003/05/05,10:30,23.2,30,22.5,19
 2003/05/05,10:45,23.2,29,23.1,19.1
 2003/05/05,11:00,23.3,30,23,19.1
 2003/05/05,11:15,23.6,27,23.3,19.2
 2003/05/05,11:30,23.6,30,24.3,19.2
 2003/05/05,11:45,23.8,30,24.9,19.3
 2003/05/05,12:00,24.1,28,24.1,19.4
 2003/05/05,12:15,24.2,28,24.5,19.4
 2003/05/05,12:30,24.3,31,25.7,19.5
 2003/05/05,12:45,24.5,30,25.9,19.6
 2003/05/05,13:00,24.5,33,27.1,19.7
 2003/05/05,13:15,24.5,34,27.2,19.7
 2003/05/05,13:30,24.6,34,28,19.8
 2003/05/05,13:45,24.6,34,28.5,19.9
 2003/05/05,14:00,24.8,33,28.9,20
 2003/05/05,14:15,24.9,35,28.4,20.1
 2003/05/05,14:30,25.1,35,27.5,20.1
 2003/05/05,14:45,25.2,36,27,20.2
 2003/05/05,15:00,25.3,37,27,20.3
 2003/05/05,15:15,25.5,37,27.1,20.4
 2003/05/05,15:30,25.6,37,27,20.6
 2003/05/05,15:45,25.7,37,26.8,20.7
 2003/05/05,16:00,25.7,36,26.7,20.8
 2003/05/05,16:15,25.6,36,26.4,20.9
 2003/05/05,16:30,25.6,35,26.2,21
 2003/05/05,16:45,25.4,34,25.8,21.1
 2003/05/05,17:00,25.2,33,25.6,21.2
 2003/05/05,17:15,25.1,33,25.4,21.3
 2003/05/05,17:30,25,32,25.1,21.4
 2003/05/05,17:45,24.8,34,24.8,21.8
 2003/05/05,18:00,24.8,35,24.7,21.7
 2003/05/05,18:15,24.8,37,24.6,21.8
 2003/05/05,18:30,24.9,40,25.2,21.9
 2003/05/05,18:45,25.1,43,25.2,22
 2003/05/05,19:00,25.1,43,25.3,22
 2003/05/05,19:15,25.3,44,24.9,22.1
 2003/05/05,19:30,25.3,44,24.8,22.2
 2003/05/05,19:45,25.4,45,24.5,22.2
 2003/05/05,20:00,25.3,43,24.2,22.3
 2003/05/05,20:15,25.2,43,24,20.7
 2003/05/05,20:30,25.1,44,24.1,20.8
 2003/05/05,20:45,25,43,24.1,20.8
 2003/05/05,21:00,25,44,24.1,20.9
 2003/05/05,21:15,24.9,44,24,20.9
 2003/05/05,21:30,24.8,44,24.3,21
 2003/05/05,21:45,24.7,45,23.4,21.1
 2003/05/05,22:00,24.7,46,23,21.2
 2003/05/05,22:15,24.6,46,22.6,21.2
 2003/05/05,22:30,24.5,46,22.5,21.3
 2003/05/05,22:45,24.4,47,22.6,21.4
 2003/05/05,23:00,24.4,47,22.3,21.5
 2003/05/05,23:15,24.3,47,21.8,21.5
 2003/05/05,23:30,24.3,47,20.8,21.6
 2003/05/05,23:45,24.2,47,20.3,21.7
 2003/05/06, 0:00,24,47,19.9,21.7
 2003/05/06, 0:15,24,47,19.9,21.8
 2003/05/06, 0:30,23.8,48,19.9,21.9
 2003/05/06, 0:45,23.7,48,19.4,21.9
 2003/05/06, 1:00,23.6,48,19.2,22
 2003/05/06, 1:15,23.5,48,19,22.1
 2003/05/06, 1:30,23.4,48,19.2,22.1
 2003/05/06, 1:45,23.3,48,19.1,22.2
 2003/05/06, 2:00,23.2,49,19.2,22.2
 2003/05/06, 2:15,23.2,49,19.1,22.3
 2003/05/06, 2:30,23.1,49,18.9,22.3
 2003/05/06, 2:45,23,49,19,22.4
 2003/05/06, 3:00,22.9,50,18.6,22.4
 2003/05/06, 3:15,22.8,50,18.3,22.4
 2003/05/06, 3:30,22.8,50,18.5,22.5
 2003/05/06, 3:45,22.7,51,18.6,22.5
 2003/05/06, 4:00,22.6,51,18.5,22.5
 2003/05/06, 4:15,22.6,51,18.8,22.6
 2003/05/06, 4:30,22.6,51,18.7,22.6
 2003/05/06, 4:45,22.5,52,18.9,22.6
 2003/05/06, 5:00,22.5,52,19,22.7
 2003/05/06, 5:15,22.4,52,19.1,22.7
 2003/05/06, 5:30,22.4,52,19,20.9
 2003/05/06, 5:45,22.3,52,18.8,20.9
 2003/05/06, 6:00,22.3,53,19.2,21
 2003/05/06, 6:15,22.3,54,19.5,21
 2003/05/06, 6:30,22.4,55,19.6,21
 2003/05/06, 6:45,22.6,55,20,21.1
 2003/05/06, 7:00,22.7,55,20.2,21.1
 2003/05/06, 7:15,22.9,56,20.6,21.1
 2003/05/06, 7:30,23,55,20.9,21.2
 2003/05/06, 7:45,23.1,56,21.3,20.4
 2003/05/06, 8:00,23.1,56,21.8,20.4
 2003/05/06, 8:15,23.2,56,21.8,20.4
 2003/05/06, 8:30,23.2,56,21.8,20.5
 2003/05/06, 8:45,23.2,57,22.1,20.5
 2003/05/06, 9:00,23.2,56,22.3,20.6
 2003/05/06, 9:15,23.3,55,22.5,20.6
 2003/05/06, 9:30,23.4,54,22.6,20.7
 2003/05/06, 9:45,23.4,53,22.6,20.8
 2003/05/06,10:00,23.5,53,23,20.3
 2003/05/06,10:15,23.8,50,23.4,20.4
 2003/05/06,10:30,23.8,51,23.4,20.4
 2003/05/06,10:45,23.8,49,23.6,20.5
 2003/05/06,11:00,23.8,47,23.5,20.6
 2003/05/06,11:15,23.8,47,23.4,20.6
 2003/05/06,11:30,23.9,48,23.9,20.7
 2003/05/06,11:45,24,48,24.1,20.8
 2003/05/06,12:00,24.1,49,24.4,20.8
 2003/05/06,12:15,24.2,50,24.4,20.9
 2003/05/06,12:30,24.2,50,24.1,21
 2003/05/06,12:45,24.2,51,24,21
 2003/05/06,13:00,24.3,53,24.1,21.1
 2003/05/06,13:15,24.4,53,24.5,21.1
 2003/05/06,13:30,24.5,53,24.7,21.2
 2003/05/06,13:45,24.5,53,24.4,21.3
 2003/05/06,14:00,24.6,53,24.2,21.3
 2003/05/06,14:15,24.6,54,24.4,21.2
 2003/05/06,14:30,24.6,54,24.2,21.2
 2003/05/06,14:45,24.5,54,24.2,21.2
 2003/05/06,15:00,24.5,53,24.2,21
 2003/05/06,15:15,24.5,53,24.1,21
 2003/05/06,15:30,24.5,53,23.9,21.1
 2003/05/06,15:45,24.5,53,24,21.2
 2003/05/06,16:00,24.5,53,23.8,21.2
 2003/05/06,16:15,24.5,53,23.9,21.3
 2003/05/06,16:30,24.6,53,24,21.3
 2003/05/06,16:45,24.5,53,23.9,21.4
 2003/05/06,17:00,24.6,53,23.9,21.5
 2003/05/06,17:15,24.4,54,23.7,21.6
 2003/05/06,17:30,24.5,53,23.6,21.6
 2003/05/06,17:45,24.5,53,23.4,21.7
 2003/05/06,18:00,24.4,53,23.4,21.7
 2003/05/06,18:15,24.4,53,23.4,21.8
 2003/05/06,18:30,24.5,53,23.2,21.9
 2003/05/06,18:45,24.4,54,23.2,21.9
 2003/05/06,19:00,24.5,56,23.7,22
 2003/05/06,19:15,24.7,56,23.2,22.1
 2003/05/06,19:30,24.9,56,22.8,22.1
 2003/05/06,19:45,25.3,57,22.6,22.2
 2003/05/06,20:00,25.3,57,22.4,22.2
 2003/05/06,20:15,25.2,56,22.2,22.3
 2003/05/06,20:30,25.2,55,22.1,22.3
 2003/05/06,20:45,25.2,56,22.4,22.4
 2003/05/06,21:00,25.1,56,22.5,22.4
 2003/05/06,21:15,25.2,57,22.4,22.5
 2003/05/06,21:30,25.1,56,21.8,22.5
 2003/05/06,21:45,25,55,21.8,22.6
 2003/05/06,22:00,25,55,22,22.6
 2003/05/06,22:15,25,55,21.4,21.8
 2003/05/06,22:30,25,56,21.1,21.9
 2003/05/06,22:45,24.9,56,20.4,21.9
 2003/05/06,23:00,24.9,57,20.1,22
 2003/05/06,23:15,24.9,56,19.9,22
 2003/05/06,23:30,24.9,57,20.1,22.1
 2003/05/06,23:45,24.8,57,19.9,22.1
 2003/05/07, 0:00,24.8,57,19.9,22.2
 2003/05/07, 0:15,24.7,57,20.2,21.3
 2003/05/07, 0:30,24.6,57,20.1,21.3
 2003/05/07, 0:45,24.5,57,19.9,21.4
 2003/05/07, 1:00,24.5,57,20,21.4
 2003/05/07, 1:15,24.4,58,20.1,21.5
 2003/05/07, 1:30,24.4,58,20.1,21.5
 2003/05/07, 1:45,24.3,58,20.1,21.6
 2003/05/07, 2:00,24.2,58,20.2,21.6
 2003/05/07, 2:15,24.2,58,20.1,21.7
 2003/05/07, 2:30,24.1,58,20.1,21.1
 2003/05/07, 2:45,24.1,58,20.1,21.1
 2003/05/07, 3:00,24,58,20.1,21.2
 2003/05/07, 3:15,23.9,58,20.1,21.2
 2003/05/07, 3:30,23.9,58,20,20.6
 2003/05/07, 3:45,23.8,59,20,20.6
 2003/05/07, 4:00,23.8,59,20,20.7
 2003/05/07, 4:15,23.7,59,20,20.8
 2003/05/07, 4:30,23.8,59,19.8,20.8
 2003/05/07, 4:45,23.7,59,19.9,20.9
 2003/05/07, 5:00,23.6,59,20,20.9
 2003/05/07, 5:15,23.7,59,20,21
 2003/05/07, 5:30,23.7,59,20,21
 2003/05/07, 5:45,23.6,60,19.9,21.1
 2003/05/07, 6:00,23.6,60,19.9,21.1
 2003/05/07, 6:15,23.6,60,19.9,20.6
 2003/05/07, 6:30,23.6,61,20.1,20.7
 2003/05/07, 6:45,23.7,61,20.2,20.7
 2003/05/07, 7:00,23.8,60,20.3,20.8
 2003/05/07, 7:15,23.8,60,20.6,20.8
 2003/05/07, 7:30,23.8,60,21.4,20.1
 2003/05/07, 7:45,23.8,60,21.4,20.2
 2003/05/07, 8:00,23.8,60,21.7,20.2
 2003/05/07, 8:15,23.8,62,22.3,20.3
 2003/05/07, 8:30,23.8,63,22.4,20.3
 2003/05/07, 8:45,23.8,63,22.2,20.4
 2003/05/07, 9:00,23.8,64,22.4,20.5
 2003/05/07, 9:15,23.8,65,22.5,20.6
 2003/05/07, 9:30,23.7,65,22.7,20.7
 2003/05/07, 9:45,23.8,65,23,20.7
 2003/05/07,10:00,24,66,23.3,20.8
 2003/05/07,10:15,24,64,23.4,20.8
 2003/05/07,10:30,24,64,23.3,20.9
 2003/05/07,10:45,23.9,64,23.2,20.9
 2003/05/07,11:00,24,64,23.3,21
 2003/05/07,11:15,24.1,63,23.4,21.1
 2003/05/07,11:30,24.1,64,23.2,21.1
 2003/05/07,11:45,24.2,66,23.4,21.2
 2003/05/07,12:00,24.3,66,23.4,21.3
 2003/05/07,12:15,24.4,66,23.4,21.3
 2003/05/07,12:30,24.4,66,23.5,21
 2003/05/07,12:45,24.5,66,23.5,21.1
 2003/05/07,13:00,24.5,67,23.4,21.2
 2003/05/07,13:15,24.5,66,23.4,21.2
 2003/05/07,13:30,24.6,66,23.3,21.3
 2003/05/07,13:45,24.6,66,23.2,21.4
 2003/05/07,14:00,24.6,67,23.2,21.4
 2003/05/07,14:15,24.6,66,23.1,21.5
 2003/05/07,14:30,24.6,66,23.3,21.6
 2003/05/07,14:45,24.6,65,23.3,21.6
 2003/05/07,15:00,24.6,65,23.3,21.7
 2003/05/07,15:15,24.6,66,23.3,21.7
 2003/05/07,15:30,24.6,65,23.4,21.8
 2003/05/07,15:45,24.6,65,23.5,21.9
 2003/05/07,16:00,24.6,68,23.6,22
 2003/05/07,16:15,24.7,69,23.6,22
 2003/05/07,16:30,24.8,68,23.8,21.6
 2003/05/07,16:45,24.8,69,23.8,21.6
 2003/05/07,17:00,24.9,70,24,21.7
 2003/05/07,17:15,24.9,70,24.1,21.7
 2003/05/07,17:30,25,69,24.1,21.8
 2003/05/07,17:45,25,70,24.1,21.9
 2003/05/07,18:00,25.1,69,24.2,21.9
 2003/05/07,18:15,25.1,69,24.7,22
 2003/05/07,18:30,25.2,70,25.1,22
 2003/05/07,18:45,25.3,70,25.3,22.1
 2003/05/07,19:00,25.9,68,25.2,22.2
 2003/05/07,19:15,26,68,25.2,22.2
 2003/05/07,19:30,25.9,68,25.1,22.3
 2003/05/07,19:45,26,69,24.8,22.3
 2003/05/07,20:00,26,67,25,22.4
 2003/05/07,20:15,26,66,25,22.5